Location: Barcelona
(41.3829°N, 2.1774°E)
Time: 11:56:06
(UTC+00:00)

ISS - Pass Details

Date: 02 May 2025
Orbit: 416 x 419 km, 51.6° (Epoch: 14 May)

Event Time Altitude Azimuth Distance (km) Brightness Sun altitude
Exits shadow 02:34:01 - 318° (NW) 1,559 -0.8 -21.5°
Reaches altitude 10° 02:34:17 10° 322° (NW) 1,496 -0.9 -21.5°
Maximum altitude 02:36:12 14° 357° (N) 1,258 -0.8 -21.2°
Drops below altitude 10° 02:38:08 10° 32° (NNE) 1,497 0.2 -21.0°
Sets 02:40:59 0° 58° (ENE) 2,361 1.5 -20.6°
